Powrót do katalogu

STARLINK-31267

AktywnyŁącznośćVLEO
NORAD 59468·PAYLOAD·🇺🇸 United States

Wystrzelony Apr 10, 2024 z Cape Canaveral Space Force Station

Loading…

Następne Przeloty (najbliższe 24 godziny)

TLE

ŚwieżeSource: CelesTrak SupGP

Epoka: Sep 14, 2026, 22:41 UTC

1 59468C 24068P   26257.94562500  .00040697  00000+0  14738-2 0  2572
2 59468  43.0042  41.4823 0001938 272.9479 157.8826 15.27561861    10

Śledź STARLINK-31267 w czasie rzeczywistym z AllMySat

Download on the App Store